Location: *
(58.7167°N, 26.1833°E)
Time: 04:19:47
(UTC+00:00)

Cosmos 1025 Rocket - Pass Details

Date: 25 August 2019
Orbit: 593 x 619 km, 82.5° (Epoch: 21 September)

Event Time Altitude Azimuth Distance (km) Brightness Sun altitude
Rises 20:24:58 0° 344° (NNW) 2,894 8.1 -17.0°
Reaches altitude 10° 20:27:15 10° 339° (NNW) 1,980 6.9 -17.2°
Maximum altitude 20:31:28 48° 265° (W) 798 3.7 -17.4°
Enters shadow 20:33:48 24° 202° (SSW) 1,281 4.3 -17.5°
